Regional Weather Roundup
Issued by NWS

Home | Current Version | Previous Version | Graphics & Text | Print | Product List | Glossary Off
Versions: 1 2 3 4 5 6 7 8 9 10 11 12 13 14 15 16 17 18 19 20 21 22 23 24 25 26 27 28 29 30 31 32 33 34 35 36 37 38 39 40 41 42 43 44 45 46 47 48 49 50

652
ASUS43 KMKX 051411
RWRWI

WISCONSIN REGIONAL WEATHER ROUNDUP
NATIONAL WEATHER SERVICE MILWAUKEE/SULLIVAN WI
800 AM CST MON DEC 05 2016

NOTE: "FAIR" INDICATES FEW OR NO CLOUDS BELOW 12,000 FEET WITH NO
SIGNIFICANT WEATHER AND/OR OBSTRUCTIONS TO VISIBILITY.

WIZ001-002-006>008-014>016-023>028-051500-
NORTHWEST WISCONSIN

CITY           SKY/WX    TMP DP  RH WIND       PRES   REMARKS
SUPERIOR ARPT  CLOUDY    33  29  84 W5        29.79S WCI  29
ASHLAND        CLOUDY    33  28  81 SW9       29.81R WCI  25
HAYWARD        FOG       27  25  92 CALM      29.79F VSB 3/4
SIREN          CLEAR     27  26  99 CALM      29.78F FOG
CUMBERLAND     FOG       27  25  93 CALM      29.79F VSB<1/4
RICE LAKE      FOG       26  26  97 E3        29.82S VSB<1/4
CHETEK         FOG       27  26  99 E6        29.81F VSB<1/4 WCI  20
LADYSMITH      FOG       29  29  98 S3        29.84S VSB<1/4
EAU CLAIRE     FOG       29  29 100 S8        29.84R VSB 1/4 WCI  21
MENOMONIE      FOG       25  24  96 CALM      29.83R VSB<1/4
NEW RICHMOND   CLEAR     27  27 100 SE5       29.79S WCI  21
OSCEOLA        MOCLDY    25  25 100 CALM      29.81S FOG
$$

WIZ003>005-009-010-017-018-051500-
NORTH CENTRAL WISCONSIN

CITY           SKY/WX    TMP DP  RH WIND       PRES   REMARKS
MANITOWISH WTR CLOUDY    31  31 100 SW7       29.79R WCI  24
ARBOR VITAE    CLOUDY    32  29  90 W8        29.81R WCI  25
WOODRUFF       CLOUDY    32  29  90 W8        29.81R WCI  25
RHINELANDER    MOCLDY    32  28  85 W10       29.82R WCI  24
EAGLE RIVER    CLOUDY    32  28  88 W9G16     29.80R WCI  24
LAND O LAKES   CLOUDY    32  30  93 SW7       29.80R WCI  26
PHILLIPS       CLOUDY    29  29  98 SW6       29.81R WCI  23
TOMAHAWK       CLOUDY    31  28  90 CALM      29.83R
MEDFORD        FOG       29  29  99 SW6       29.83S VSB<1/4 WCI  23
MERRILL        CLOUDY    31  30  96 SW3       29.86R
$$

WIZ029-030-035-036-043>047-051500-
CENTRAL WISCONSIN

CITY           SKY/WX    TMP DP  RH WIND       PRES   REMARKS
WAUSAU         CLOUDY    32  30  92 SW6       29.85R WCI  26
MOSINEE        CLOUDY    32  32 100 SW7       29.87S WCI  26
MARSHFIELD     CLOUDY    31  29  92 SW6       29.84S FOG     WCI  25
STEVENS POINT  CLOUDY    31  31  96 W6        29.87F WCI  26
WAUPACA        CLOUDY    33  32  94 CALM      29.89S
WAUTOMA        CLOUDY    33  31  92 SW7       29.91R WCI  27
WISC RAPIDS    CLOUDY    32  31  96 SW3       29.89R
CAMP DOUGLAS   CLOUDY    32  32 100 S5        29.88S WCI  27
$$

WIZ011>013-019>022-031-037>040-048>050-051500-
NORTHEAST WISCONSIN

CITY           SKY/WX    TMP DP  RH WIND       PRES   REMARKS
ANTIGO         CLOUDY    31  28  91 W15       29.84R WCI  20
SHAWANO        MOCLDY    34  31  90 SW3       29.89R
OCONTO         MOCLDY    32  31  94 SW6       29.89R WCI  27
STURGEON BAY   CLOUDY    35  31  85 SW9       29.90R WCI  28
GREEN BAY      MOCLDY    34  32  92 SW5       29.90S WCI  30
MANITOWOC      CLEAR     33  31  92 S5        29.92R WCI  29
APPLETON       MOCLDY    30  30 100 SW8       29.88S WCI  23
CLINTONVILLE   CLOUDY    34  32  93 SW6       29.89S WCI  29
OSHKOSH        CLOUDY    33  29  85 SW8       29.91S WCI  26
$$

WIZ032>034-041-042-053>061-051500-
SOUTHWEST WISCONSIN

CITY           SKY/WX    TMP DP  RH WIND       PRES   REMARKS
LA CROSSE      CLOUDY    35  33  92 S14       29.88R FOG     WCI  26
SPARTA         CLOUDY    32  31  99 CALM      29.89R FOG
VIROQUA        CLOUDY    32  32 100 S8        29.88R VSB<1/4 WCI  25
BOSCOBEL       CLOUDY    34  32  92 S7        29.93R FOG     WCI  28
PRAIRIE DU CHI CLOUDY    33  32  95 CALM      29.92F FOG
PLATTEVILLE    CLOUDY    32  32 100 S8        29.93F VSB 1/4 WCI  25
$$

WIZ056-057-062-063-064-067-068-051500-
SOUTH CENTRAL WISCONSIN

CITY           SKY/WX    TMP DP  RH WIND       PRES   REMARKS
REEDSBURG      CLOUDY    32  32 100 S8        29.91R FOG     WCI  25
BARABOO/DELLS  CLOUDY    32  32  97 S6        29.91R FOG     WCI  27
LONE ROCK      CLOUDY    33  32  96 S7        29.94R FOG     WCI  27
MINERAL POINT  FOG       32  32 100 S8        29.92S VSB<1/4 WCI  25
MADISON        CLOUDY    33  32  96 S6        29.94R FOG     WCI  28
MIDDLETON      CLOUDY    34  34 100 SW8       29.94R WCI  27
WATERTOWN      CLOUDY    32  32 100 SW5       29.94S FOG     WCI  27
MONROE         FOG       32  32 100 S10       29.94R VSB<1/4 WCI  24
JANESVILLE     CLOUDY    34  34 100 SW6       29.96S FOG     WCI  29
$$

WIZ051-052-058>065-066-070>072-051500-
SOUTHEAST WISCONSIN

CITY           SKY/WX    TMP DP  RH WIND       PRES   REMARKS
MILWAUKEE      CLOUDY    34  31  88 W7        29.97S WCI  28
WAUKESHA       CLOUDY    30  30 100 SW7       29.97R FOG     WCI  23
MILWAUKEE/TIMM CLOUDY    34  28  80 SW6       29.98R WCI  29
RACINE         CLOUDY    33  30  88 SW5       29.99S WCI  29
BURLINGTON     CLOUDY    32  31  98 SW5       29.97S FOG     WCI  27
KENOSHA        CLOUDY    33  31  92 SW9       29.99R FOG     WCI  25
FOND DU LAC    CLOUDY    33  28  81 SW5       29.92S WCI  29
SHEBOYGAN      CLOUDY    33  29  85 SW8       29.93S WCI  26
WEST BEND      CLOUDY    32  32 100 SW8       29.95R WCI  25
JUNEAU         CLOUDY    32  31  96 S8        29.95R FOG     WCI  25
$$

LSZ147-162-051500-
LAKE SUPERIOR

STATION/POSITION TIME  TEMP    WIND        PRES    WAVE
                       AIR SEA DIR/SP/G            HT/PER
                 (UTC) (F)     (DEG/KT/KT) (MB)    (FT/S)
DEVILS ISLAND    1300   36     260/ 12/ 15 1008.6R
PORT WING        1240   34     210/  7/  9 1008.8R
SAXON HARBOR     1240   36     220/  4/ 10 1008.8R
$$

LMZ867-665-643>646-051500-
LAKE MICHIGAN

STATION/POSITION TIME  TEMP    WIND        PRES    WAVE
                       AIR SEA DIR/SP/G            HT/PER
                 (UTC) (F)     (DEG/KT/KT) (MB)    (FT/S)
CHAMBERS ISLAND  1240   37     210/  9/ 14 1009.8R
NORTHPORT PIER   1240   37     240/  7/ 13 1010.2R
SISTER BAY       1338   39     250/ 22/ 26   N/A
ALGOMA LAKESHORE 1351          260/  8/ 12   N/A
KEWAUNEE LAKESHO 1348   35     220/  4/  8 1012.5R
SHEBOYGAN LAKESH 1300   35     240/ 12/ 15 1014.2R
PORT WASHINGTON  1230   35     250/  5/ 10 1014.9F
MILWAUKEE LAKESH 1350   34     260/  8/ 11   N/A
KENOSHA   LAKESH 1300   33     270/  9/ 11 1015.6
$$

TC  - TEMPERATURE IN CELSIUS
VSB - VISIBILITY IN STATUTE MILES
WCI - WIND CHILL INDEX
HX  - HEAT INDEX





USA.gov is the U.S. government's official web portal to all federal, state and local government web resources and services.